Showing default

YOUTHSAT, 37388

Orbit data source: Space-Track

YOUTHSAT, 37388 is a payload satellite owned by ISRO (IN) in SSO that was launched on Wed, 20 Apr 2011 UTC via a PSLV launch vehicle from the Sirharikota (SRI). Payload-class satellites include a variety of spacecraft equipped with specific instruments for various scientific and technological missions. These include communications satellites like Starlink; space stations such as the ISS; scientific satellites like the Hubble; Earth observation satellites from companies like Planet Labs, Umbra, and HawkEye 360; GPS; miniature CubeSats for education and research; and military/defense satellites.

Loading next visibility...
Identifier
37388, 2011-015B
Orbit
SSO
Country
Flag of ININ / IND
Related business
Manufacturer
ISRO
Mission
Operational Civil Science
Bus & Motor
IMS-1, Unknown motor
Mass
92 kg wet, 92 kg dry
Launch date (UTC)
2011-04-20 (15 years ago)
Launch vehicle
PSLV
Launch site
Sirharikota (SRI)
Object type
Payload
Rocket body
Debris
Shape & HBR
Box, Unknown HBR
Radar Cross Section
0.540 m², Medium (>0.1 m² and < 1m²)

Expand to show TLE details & history
Last TLE update: 8 hours ago

TLE from 8 hours ago
0 YOUTHSAT
1 37388U 11015B   25346.95033720  .00000391  00000-0  18275-3 0  9995
2 37388  98.3468 324.6499 0014700 164.5222 256.5805 14.25520607761108
Epoch: 2025-12-12T22:48Z
TLE epoch observation values (Epoch: 2025-12-12T22:48:29.134Z)
Latitude
59.96143°
Longitude
-113.9748°
Altitude
819.385 km
Speed
7.448 km/s
True Right ascension
20h 40m 07s
True Declination
59° 48' 48"
Sunlit
Object was in daylight at epoch
Visualization orbit readout
Latitude
Unknown
Longitude
Unknown
Altitude
Unknown
Speed
Unknown
Apparent Right ascension
Unknown
Apparent Declination
Unknown
Sunlit
N/A
Visualization observer readout
Local Sidereal Time
05:22:57
Azimuth
Unknown
Elevation
Unknown
Doppler factor
Unknown
Orbital elements
Apogee altitude
814.435 km
Perigee altitude
793.319 km
Semi-major axis
7,182.014 km
Eccentricity
0.00147
Inclination
98.3468°
RAAN
324.6499°
Arg. of periapsis
164.5222°
True anomaly
256.41672°
Mean anomaly
256.5805°
Eccentric anomaly
256.4986°
Mean motion
3.56594 °/min
Orbital period
100.96 mins
BSTAR
0.00018275
Loading maneuver chart data...
Computing Atmospheric mass density...
Loading historical data...
Loading historical data...
Loading historical data...
Loading historical data...
Loading historical data...
Loading historical data...
Loading historical data...
Other satellites on launch #15 in the year 2011 (2011-04-20 UTC)

Documentation

Showing up to 5 results
|